| time (UTC) | temp C | wind direction | speed KPH | gust KPH | rain 1hr cm | rain 24hr cm | rain mn cm | humidity % | barometer mb |
| 20260505061519 | 23 | 186 | 4.8 | 12.9 | 0.00 | 0.13 | 0.00 | 24 | 1018.2 |
| 20260505054518 | 23 | 127 | 4.8 | 9.7 | 0.00 | 0.13 | 0.00 | 23 | 1018.3 |
| 20260505051518 | 22 | 168 | 8.0 | 11.3 | 0.00 | 0.13 | 0.00 | 24 | 1018.6 |
| 20260505041518 | 21 | 102 | 4.8 | 9.7 | 0.00 | 0.13 | 0.00 | 26 | 1019.2 |
| 20260505034518 | 21 | 168 | 3.2 | 12.9 | 0.00 | 0.13 | 0.00 | 26 | 1019.3 |
| 20260505031518 | 20 | 107 | 8.0 | 12.9 | 0.00 | 0.13 | 0.00 | 31 | 1019.7 |
| 20260505024519 | 20 | 153 | 8.0 | 11.3 | 0.00 | 0.13 | 0.00 | 32 | 1020.1 |
| 20260505021519 | 19 | 108 | 1.6 | 11.3 | 0.00 | 0.13 | 0.00 | 33 | 1020.6 |
| 20260505014517 | 18 | 231 | 0.0 | 3.2 | 0.00 | 0.13 | 0.00 | 40 | 1020.9 |
| 20260505011517 | 17 | 100 | 4.8 | 4.8 | 0.00 | 0.13 | 0.00 | 48 | 1021.1 |
| 20260505004519 | 16 | 165 | 1.6 | 11.3 | 0.00 | 0.13 | 0.00 | 52 | 1021.3 |
| 20260505001518 | 16 | 197 | 1.6 | 4.8 | 0.00 | 0.13 | 0.00 | 55 | 1021.4 |
| 20260504234518 | 15 | 184 | 1.6 | 4.8 | 0.00 | 0.13 | 0.00 | 61 | 1021.5 |
| 20260504231517 | 14 | 96 | 0.0 | 0.0 | 0.00 | 0.13 | 0.00 | 66 | 1021.5 |
| 20260504224517 | 13 | 170 | 0.0 | 0.0 | 0.00 | 0.13 | 0.00 | 73 | 1021.4 |
| 20260504221517 | 12 | 167 | 0.0 | 0.0 | 0.00 | 0.13 | 0.00 | 78 | 1021.3 |
| 20260504214519 | 11 | 276 | 0.0 | 0.0 | 0.00 | 0.13 | 0.00 | 81 | 1021.0 |
| 20260504211517 | 10 | 15 | 0.0 | 0.0 | 0.00 | 0.13 | 0.00 | 84 | 1020.7 |
| 20260504204518 | 10 | 16 | 0.0 | 0.0 | 0.00 | 0.13 | 0.00 | 86 | 1020.2 |
| 20260504201518 | 9 | 105 | 0.0 | 0.0 | 0.00 | 0.13 | 0.00 | 86 | 1019.7 |
| 20260504194518 | 9 | 317 | 0.0 | 0.0 | 0.00 | 0.13 | 0.00 | 87 | 1019.0 |
| 20260504191518 | 9 | 324 | 0.0 | 0.0 | 0.00 | 0.15 | 0.00 | 87 | 1018.6 |
| 20260504184517 | 9 | 324 | 0.0 | 0.0 | 0.00 | 0.15 | 0.00 | 87 | 1018.4 |
| 20260504181517 | 10 | 324 | 0.0 | 0.0 | 0.00 | 0.15 | 0.00 | 86 | 1018.2 |
| 20260504174517 | 10 | 324 | 0.0 | 0.0 | 0.00 | 0.36 | 0.00 | 85 | 1017.9 |
| 20260504171518 | 10 | 314 | 3.2 | 9.7 | 0.00 | 0.38 | 0.00 | 85 | 1017.7 |
| 20260504081518 | 15 | 298 | 1.6 | 11.3 | 0.03 | 2.97 | 0.51 | 79 | 1009.4 |